Sidney-Richland, MT

5:06 PM MDT on April 26, 2017 (GMT -0600)
Sidney-Richland Municipal

Weather History for KSDY - June, 2013

Change the Weather History Date:

Sunday, June 16, 2013

  Actual Average Record
Temperature  
Mean Temperature 62 °F -  
Max Temperature 73 °F 77 °F 94 °F (1987)
Min Temperature 50 °F 48 °F 30 °F (1915)
Degree Days  
Heating Degree Days 4    
Growing Degree Days 12 (Base 50)    
Moisture  
Dew Point 48 °F    
Average Humidity 61    
Maximum Humidity 82    
Minimum Humidity 41    
Precipitation  
Precipitation 0.00 in - - ()
Sea Level Pressure  
Sea Level Pressure 30.02 in    
Wind  
Wind Speed 11 mph (WNW)    
Max Wind Speed 23 mph    
Max Gust Speed 32 mph    
Visibility 10 miles    
Events      
Averages and records for this station are not official NWS values.
T = Trace of Precipitation, MM = Missing Value Source: NWS Daily Summary

Daily Weather History Graph

Daily Weather History Graph

Search for Another Location

Airport or City:

Trip Planner

Search our weather history database for the weather conditions in past years. The results will help you decide how hot, cold, wet, or windy it might be!

Date:

Astronomy

Jun. 16, 2013 Rise Set
Actual Time 4:57 AM MDT 8:57 PM MDT
Civil Twilight 4:17 AM MDT 9:38 PM MDT
Nautical Twilight 3:20 AM MDT 10:34 PM MDT
Astronomical Twilight 1:48 AM MDT 12:06 AM MDT
Moon 1:08 PM MDT (6/16) 12:33 AM MDT (6/16)
Length of Visible Light 17h 21m
Length of Day
15h 59m
Waxing Crescent, 50% of the Moon is Illuminated
Jun 16
Waxing Crescent
Jun 23
Full
Jun 29
Last Quarter
Jul 8
New
Jul 15
First Quarter

Hourly Weather History & Observations

Time (MDT) Temp. Dew Point Humidity Pressure Visibility Wind Dir Wind Speed Gust Speed Precip Events Conditions
12:15 AM 51.8 °F 46.4 °F 82% 29.95 in 10.0 mi SSW 5.8 mph - N/A   Clear
1:35 AM 50.0 °F 44.6 °F 82% 29.95 in 10.0 mi SSW 5.8 mph - N/A   Clear
1:55 AM 51.8 °F 44.6 °F 76% 29.95 in 10.0 mi SSW 3.5 mph - N/A   Clear
2:15 AM 51.8 °F 46.4 °F 82% 29.96 in 10.0 mi SSE 3.5 mph - N/A   Clear
2:55 AM 51.8 °F 46.4 °F 82% 29.96 in 10.0 mi South 6.9 mph - N/A   Clear
3:15 AM 50.0 °F 44.6 °F 82% 29.95 in 10.0 mi South 5.8 mph - N/A   Clear
3:35 AM 50.0 °F 44.6 °F 82% 29.96 in 10.0 mi South 4.6 mph - N/A   Clear
3:55 AM 50.0 °F 44.6 °F 82% 29.96 in 10.0 mi South 5.8 mph - N/A   Clear
4:15 AM 50.0 °F 44.6 °F 82% 29.96 in 10.0 mi West 3.5 mph - N/A   Clear
4:35 AM 55.4 °F 44.6 °F 67% 29.97 in 10.0 mi West 12.7 mph - N/A   Clear
4:55 AM 55.4 °F 44.6 °F 67% 29.97 in 10.0 mi West 12.7 mph - N/A   Clear
5:15 AM 55.4 °F 44.6 °F 67% 29.97 in 10.0 mi West 11.5 mph - N/A   Clear
5:35 AM 55.4 °F 44.6 °F 67% 29.98 in 10.0 mi West 11.5 mph - N/A   Clear
5:55 AM 55.4 °F 46.4 °F 72% 29.98 in 10.0 mi West 15.0 mph - N/A   Clear
6:15 AM 57.2 °F 46.4 °F 67% 29.99 in 10.0 mi West 11.5 mph - N/A   Clear
6:35 AM 59.0 °F 46.4 °F 63% 29.99 in 10.0 mi West 11.5 mph - N/A   Clear
6:55 AM 60.8 °F 46.4 °F 59% 29.99 in 10.0 mi West 13.8 mph - N/A   Clear
7:15 AM 60.8 °F 46.4 °F 59% 29.99 in 10.0 mi West 16.1 mph - N/A   Clear
7:35 AM 62.6 °F 48.2 °F 59% 30.00 in 10.0 mi West 15.0 mph 20.7 mph N/A   Clear
7:55 AM 62.6 °F 48.2 °F 59% 30.00 in 10.0 mi WNW 15.0 mph 23.0 mph N/A   Clear
8:15 AM 64.4 °F 48.2 °F 56% 30.00 in 10.0 mi WNW 17.3 mph 23.0 mph N/A   Clear
8:56 AM 64.4 °F 48.2 °F 56% 30.01 in 10.0 mi West 17.3 mph 23.0 mph N/A   Clear
9:15 AM 64.4 °F 48.2 °F 56% 30.01 in 10.0 mi WNW 19.6 mph 23.0 mph N/A   Clear
9:35 AM 66.2 °F 48.2 °F 52% 30.01 in 10.0 mi WNW 16.1 mph 24.2 mph N/A   Clear
9:55 AM 66.2 °F 48.2 °F 52% 30.01 in 10.0 mi West 18.4 mph 24.2 mph N/A   Clear
10:35 AM 68.0 °F 48.2 °F 49% 30.01 in 10.0 mi WNW 17.3 mph 26.5 mph N/A   Clear
10:55 AM 69.8 °F 48.2 °F 46% 30.01 in 10.0 mi West 18.4 mph 27.6 mph N/A   Clear
11:15 AM 69.8 °F 48.2 °F 46% 30.01 in 10.0 mi WNW 20.7 mph 27.6 mph N/A   Clear
11:35 AM 69.8 °F 48.2 °F 46% 30.01 in 10.0 mi NW 20.7 mph 29.9 mph N/A   Clear
11:55 AM 69.8 °F 48.2 °F 46% 30.01 in 10.0 mi NW 19.6 mph 28.8 mph N/A   Clear
12:15 PM 71.6 °F 51.8 °F 50% 30.01 in 10.0 mi WNW 20.7 mph 26.5 mph N/A   Clear
12:35 PM 71.6 °F 50.0 °F 46% 30.01 in 10.0 mi NW 20.7 mph 31.1 mph N/A   Clear
12:55 PM 71.6 °F 50.0 °F 46% 30.01 in 10.0 mi WNW 21.9 mph 27.6 mph N/A   Partly Cloudy
1:15 PM 71.6 °F 48.2 °F 43% 30.02 in 10.0 mi WNW 17.3 mph 28.8 mph N/A   Scattered Clouds
1:55 PM 71.6 °F 50.0 °F 46% 30.02 in 10.0 mi NW 20.7 mph 26.5 mph N/A   Scattered Clouds
2:15 PM 73.4 °F 50.0 °F 44% 30.02 in 10.0 mi WNW 23.0 mph 32.2 mph N/A   Scattered Clouds
2:35 PM 73.4 °F 48.2 °F 41% 30.02 in 10.0 mi WNW 19.6 mph 31.1 mph N/A   Partly Cloudy
2:55 PM 73.4 °F 48.2 °F 41% 30.02 in 10.0 mi West 13.8 mph 28.8 mph N/A   Partly Cloudy
3:15 PM 73.4 °F 48.2 °F 41% 30.02 in 10.0 mi WNW 20.7 mph 28.8 mph N/A   Scattered Clouds
3:35 PM 73.4 °F 48.2 °F 41% 30.02 in 10.0 mi WNW 20.7 mph 24.2 mph N/A   Scattered Clouds
3:55 PM 71.6 °F 48.2 °F 43% 30.02 in 10.0 mi WNW 20.7 mph 24.2 mph N/A   Scattered Clouds
4:15 PM 73.4 °F 48.2 °F 41% 30.02 in 10.0 mi NW 17.3 mph 28.8 mph N/A   Mostly Cloudy
4:35 PM 71.6 °F 50.0 °F 46% 30.02 in 10.0 mi WNW 16.1 mph 26.5 mph N/A   Mostly Cloudy
4:55 PM 71.6 °F 50.0 °F 46% 30.02 in 10.0 mi NW 16.1 mph 31.1 mph N/A   Scattered Clouds
5:15 PM 71.6 °F 50.0 °F 46% 30.02 in 10.0 mi NNW 20.7 mph - N/A   Scattered Clouds
6:15 PM 71.6 °F 48.2 °F 43% 30.03 in 10.0 mi NW 16.1 mph 25.3 mph N/A   Partly Cloudy
6:35 PM 69.8 °F 48.2 °F 46% 30.03 in 10.0 mi NW 17.3 mph 24.2 mph N/A   Clear
6:55 PM 69.8 °F 51.8 °F 53% 30.04 in 10.0 mi NNW 12.7 mph - N/A   Clear
7:15 PM 68.0 °F 51.8 °F 56% 30.05 in 10.0 mi NNW 15.0 mph - N/A   Clear
7:35 PM 66.2 °F 51.8 °F 60% 30.06 in 10.0 mi NNW 11.5 mph - N/A   Clear
7:55 PM 66.2 °F 50.0 °F 56% 30.06 in 10.0 mi NNW 11.5 mph - N/A   Clear
8:15 PM 64.4 °F 51.8 °F 64% 30.06 in 10.0 mi NNW 6.9 mph - N/A   Clear
8:35 PM 62.6 °F 51.8 °F 68% 30.07 in 10.0 mi NW 8.1 mph - N/A   Clear
8:55 PM 60.8 °F 51.8 °F 72% 30.07 in 10.0 mi WNW 4.6 mph - N/A   Clear
9:15 PM 57.2 °F 50.0 °F 77% 30.08 in 10.0 mi WNW 5.8 mph - N/A   Clear
9:35 PM 55.4 °F 48.2 °F 77% 30.09 in 10.0 mi West 5.8 mph - N/A   Clear
9:55 PM 55.4 °F 50.0 °F 82% 30.09 in 10.0 mi West 9.2 mph - N/A   Clear
10:15 PM 55.4 °F 48.2 °F 77% 30.10 in 10.0 mi WNW 10.4 mph - N/A   Clear
10:35 PM 55.4 °F 48.2 °F 77% 30.10 in 10.0 mi WNW 9.2 mph - N/A   Clear
10:55 PM 53.6 °F 48.2 °F 82% 30.10 in 10.0 mi WNW 10.4 mph - N/A   Clear
11:15 PM 53.6 °F 48.2 °F 82% 30.10 in 10.0 mi WNW 10.4 mph - N/A   Clear
11:35 PM 53.6 °F 48.2 °F 82% 30.10 in 10.0 mi WNW 9.2 mph - N/A   Clear
11:55 PM 55.4 °F 50.0 °F 82% 30.10 in 10.0 mi WNW 9.2 mph - N/A   Clear